Location: Gallinara
(44.0333°N, 8.2333°E)
Time: 16:47:53
(UTC+00:00)

Lacrosse 5 - Pass Details

Date: 25 September 2020
Orbit: 716 x 723 km, 57.0° (Epoch: 27 October)

Event Time Altitude Azimuth Distance (km) Brightness Sun altitude
Exits shadow 01:19:15 18° 38° (NE) 1,746 4.4 -39.3°
Drops below altitude 10° 01:20:31 10° 43° (NE) 2,207 5.1 -39.2°
Sets 01:22:57 0° 47° (NE) 3,131 6.1 -38.9°
